| time (UTC) | temp F | wind direction | speed MPH | gust MPH | rain 1hr in | rain 24hr in | rain mn in | humidity % | barometer mb |
| 20260905204503 | 75 | 0 | 0.0 | 0.0 | 0.00 | 0.00 | 0.00 | 66 | 1018.1 |
| 20260905203603 | 75 | 0 | 0.0 | 0.0 | 0.00 | 0.00 | 0.00 | 65 | 1018.1 |
| 20260905202703 | 76 | 0 | 0.0 | 0.0 | 0.00 | 0.00 | 0.00 | 64 | 1018.1 |
| 20260905201803 | 76 | 0 | 0.0 | 0.0 | 0.00 | 0.00 | 0.00 | 64 | 1018.1 |
| 20260905201116 | 76 | 0 | 0.0 | 0.0 | 0.00 | 0.00 | 0.00 | 63 | 1018.1 |
| 20260905200005 | 77 | 0 | 0.0 | 0.0 | 0.00 | 0.00 | 0.00 | 63 | 1018.1 |
| 20260905195613 | 77 | 0 | 0.0 | 0.0 | 0.00 | 0.00 | 0.00 | 62 | 1017.1 |
| 20260905194505 | 77 | 0 | 0.0 | 0.0 | 0.00 | 0.00 | 0.00 | 62 | 1017.1 |
| 20260905193603 | 78 | 0 | 0.0 | 0.0 | 0.00 | 0.00 | 0.00 | 61 | 1017.1 |
| 20260905192704 | 78 | 0 | 0.0 | 0.0 | 0.00 | 0.00 | 0.00 | 61 | 1017.1 |
| 20260905191803 | 79 | 0 | 0.0 | 0.0 | 0.00 | 0.00 | 0.00 | 59 | 1017.1 |
| 20260905190903 | 80 | 0 | 0.0 | 0.0 | 0.00 | 0.00 | 0.00 | 59 | 1017.1 |
| 20260905190003 | 80 | 0 | 0.0 | 0.0 | 0.00 | 0.00 | 0.00 | 59 | 1017.1 |
| 20260905185614 | 80 | 0 | 0.0 | 0.0 | 0.00 | 0.00 | 0.00 | 59 | 1017.1 |
| 20260905184505 | 81 | 0 | 0.0 | 0.0 | 0.00 | 0.00 | 0.00 | 57 | 1017.1 |
| 20260905183603 | 82 | 0 | 0.0 | 0.0 | 0.00 | 0.00 | 0.00 | 57 | 1017.1 |
| 20260905182703 | 83 | 0 | 0.0 | 0.0 | 0.00 | 0.00 | 0.00 | 56 | 1017.1 |
| 20260905181803 | 84 | 0 | 0.0 | 0.0 | 0.00 | 0.00 | 0.00 | 55 | 1017.1 |
| 20260905180903 | 85 | 0 | 0.0 | 0.0 | 0.00 | 0.00 | 0.00 | 55 | 1017.1 |
| 20260905180005 | 86 | 0 | 0.0 | 0.0 | 0.00 | 0.00 | 0.00 | 55 | 1017.1 |
| 20260905175616 | 86 | 0 | 0.0 | 0.0 | 0.00 | 0.00 | 0.00 | 54 | 1017.1 |
| 20260905174503 | 87 | 0 | 0.0 | 0.0 | 0.00 | 0.00 | 0.00 | 56 | 1017.1 |
| 20260905173603 | 87 | 0 | 0.0 | 0.0 | 0.00 | 0.00 | 0.00 | 55 | 1017.1 |
| 20260905172703 | 87 | 0 | 0.0 | 0.0 | 0.00 | 0.00 | 0.00 | 55 | 1017.1 |
| 20260905172013 | 87 | 0 | 0.0 | 0.0 | 0.00 | 0.00 | 0.00 | 56 | 1017.1 |
| 20260905171113 | 87 | 0 | 0.0 | 0.0 | 0.00 | 0.00 | 0.00 | 57 | 1017.1 |
| 20260905170003 | 86 | 0 | 0.0 | 0.0 | 0.00 | 0.00 | 0.00 | 62 | 1017.1 |
| 20260905165616 | 86 | 0 | 0.0 | 0.0 | 0.00 | 0.00 | 0.00 | 64 | 1017.1 |
| 20260905164503 | 85 | 0 | 0.0 | 0.0 | 0.00 | 0.00 | 0.00 | 69 | 1017.1 |
| 20260905163603 | 85 | 0 | 0.0 | 0.0 | 0.00 | 0.00 | 0.00 | 69 | 1018.1 |
| 20260905162703 | 86 | 0 | 0.0 | 0.0 | 0.00 | 0.00 | 0.00 | 67 | 1018.1 |
| 20260905161803 | 87 | 0 | 0.0 | 0.0 | 0.00 | 0.00 | 0.00 | 68 | 1018.1 |
| 20260905160903 | 87 | 270 | 0.0 | 13.0 | 0.00 | 0.00 | 0.00 | 67 | 1018.1 |
| 20260905160003 | 88 | 315 | 0.0 | 2.0 | 0.00 | 0.00 | 0.00 | 67 | 1018.1 |
| 20260905155403 | 89 | 315 | 0.0 | 2.0 | 0.00 | 0.00 | 0.00 | 67 | 1018.1 |
| 20260905154503 | 87 | 0 | 0.0 | 0.0 | 0.00 | 0.00 | 0.00 | 68 | 1018.1 |
| 20260905153604 | 89 | 227 | 0.0 | 62.0 | 0.00 | 0.00 | 0.00 | 68 | 1018.1 |
| 20260905152705 | 87 | 250 | 62.0 | 62.0 | 0.00 | 0.00 | 0.00 | 70 | 1018.1 |
| 20260905151803 | 87 | 315 | 0.0 | 73.0 | 0.00 | 0.00 | 0.00 | 69 | 1018.1 |
| 20260905151116 | 87 | 0 | 0.0 | 0.0 | 0.00 | 0.00 | 0.00 | 70 | 1019.1 |
| 20260905150003 | 86 | 291 | 0.0 | 48.0 | 0.00 | 0.00 | 0.00 | 70 | 1019.1 |
| 20260905145405 | 85 | 242 | 24.0 | 48.0 | 0.00 | 0.00 | 0.00 | 69 | 1019.1 |
| 20260905144503 | 87 | 321 | 20.0 | 30.0 | 0.00 | 0.00 | 0.00 | 69 | 1019.1 |
| 20260905143605 | 86 | 314 | 2.0 | 44.0 | 0.00 | 0.00 | 0.00 | 69 | 1019.1 |
| 20260905142705 | 88 | 349 | 0.0 | 39.0 | 0.00 | 0.00 | 0.00 | 68 | 1019.1 |
| 20260905141803 | 87 | 0 | 0.0 | 0.0 | 0.00 | 0.00 | 0.00 | 71 | 1019.1 |
| 20260905140903 | 86 | 225 | 0.0 | 3.0 | 0.00 | 0.00 | 0.00 | 71 | 1020.1 |
| 20260905140004 | 85 | 328 | 0.0 | 62.0 | 0.00 | 0.00 | 0.00 | 72 | 1020.1 |
| 20260905135612 | 84 | 327 | 0.0 | 62.0 | 0.00 | 0.00 | 0.00 | 73 | 1020.1 |
| 20260905134505 | 84 | 319 | 0.0 | 69.0 | 0.00 | 0.00 | 0.00 | 72 | 1020.1 |
| 20260905133814 | 84 | 312 | 64.0 | 77.0 | 0.00 | 0.00 | 0.00 | 72 | 1020.1 |
| 20260905132912 | 85 | 307 | 24.0 | 77.0 | 0.00 | 0.00 | 0.00 | 71 | 1020.1 |
| 20260905131803 | 84 | 309 | 0.0 | 77.0 | 0.00 | 0.00 | 0.00 | 71 | 1020.1 |
| 20260905130903 | 84 | 283 | 0.0 | 39.0 | 0.00 | 0.00 | 0.00 | 71 | 1021.1 |
| 20260905130005 | 83 | 263 | 39.0 | 39.0 | 0.00 | 0.00 | 0.00 | 70 | 1021.1 |
| 20260905125403 | 83 | 259 | 0.0 | 34.0 | 0.00 | 0.00 | 0.00 | 70 | 1021.1 |
| 20260905124503 | 86 | 294 | 24.0 | 40.0 | 0.00 | 0.00 | 0.00 | 67 | 1021.1 |
| 20260905123603 | 86 | 325 | 39.0 | 39.0 | 0.00 | 0.00 | 0.00 | 67 | 1021.1 |
| 20260905122703 | 87 | 49 | 25.0 | 70.0 | 0.00 | 0.00 | 0.00 | 66 | 1021.1 |
| 20260905122016 | 89 | 106 | 70.0 | 78.0 | 0.00 | 0.00 | 0.00 | 60 | 1021.1 |
| 20260905121117 | 89 | 86 | 77.0 | 77.0 | 0.00 | 0.00 | 0.00 | 60 | 1021.1 |
| 20260905120005 | 87 | 90 | 27.0 | 27.0 | 0.00 | 0.00 | 0.00 | 63 | 1021.1 |
| 20260905115614 | 87 | 90 | 0.0 | 39.0 | 0.00 | 0.00 | 0.00 | 62 | 1021.1 |
| 20260905114503 | 87 | 64 | 39.0 | 39.0 | 0.00 | 0.00 | 0.00 | 65 | 1021.1 |
| 20260905113603 | 86 | 79 | 39.0 | 39.0 | 0.00 | 0.00 | 0.00 | 66 | 1021.1 |
| 20260905112703 | 86 | 47 | 39.0 | 40.0 | 0.00 | 0.00 | 0.00 | 68 | 1021.1 |
| 20260905112013 | 84 | 13 | 39.0 | 77.0 | 0.00 | 0.00 | 0.00 | 68 | 1021.1 |
| 20260905110903 | 83 | 82 | 0.0 | 39.0 | 0.00 | 0.00 | 0.00 | 70 | 1021.1 |
| 20260905110003 | 82 | 77 | 0.0 | 38.0 | 0.00 | 0.00 | 0.00 | 74 | 1021.1 |
| 20260905105403 | 82 | 90 | 0.0 | 39.0 | 0.00 | 0.00 | 0.00 | 75 | 1022.1 |
| 20260905104713 | 81 | 95 | 0.0 | 39.0 | 0.00 | 0.00 | 0.00 | 77 | 1022.1 |
| 20260905103814 | 81 | 59 | 22.0 | 39.0 | 0.00 | 0.00 | 0.00 | 79 | 1022.1 |
| 20260905102915 | 79 | 79 | 0.0 | 78.0 | 0.00 | 0.00 | 0.00 | 81 | 1022.1 |
| 20260905101803 | 79 | 52 | 39.0 | 77.0 | 0.00 | 0.00 | 0.00 | 83 | 1022.1 |
| 20260905100905 | 78 | 72 | 0.0 | 39.0 | 0.00 | 0.00 | 0.00 | 87 | 1022.1 |
| 20260905100003 | 77 | 90 | 0.0 | 77.0 | 0.00 | 0.00 | 0.00 | 89 | 1022.1 |
| 20260905095403 | 77 | 37 | 39.0 | 77.0 | 0.00 | 0.00 | 0.00 | 89 | 1022.1 |
| 20260905094503 | 76 | 39 | 77.0 | 77.0 | 0.00 | 0.00 | 0.00 | 91 | 1022.1 |
| 20260905093603 | 76 | 116 | 0.0 | 77.0 | 0.00 | 0.00 | 0.00 | 92 | 1022.1 |
| 20260905092705 | 75 | 103 | 0.0 | 77.0 | 0.00 | 0.00 | 0.00 | 94 | 1022.1 |
| 20260905091803 | 74 | 204 | 39.0 | 39.0 | 0.00 | 0.00 | 0.00 | 95 | 1022.1 |
| 20260905090903 | 72 | 76 | 39.0 | 74.0 | 0.00 | 0.00 | 0.00 | 96 | 1022.1 |
| 20260905090004 | 73 | 57 | 0.0 | 39.0 | 0.00 | 0.00 | 0.00 | 97 | 1022.1 |
| 20260905085405 | 72 | 88 | 19.0 | 39.0 | 0.00 | 0.00 | 0.00 | 98 | 1022.1 |
| 20260905084503 | 72 | 48 | 39.0 | 39.0 | 0.00 | 0.00 | 0.00 | 98 | 1022.1 |
| 20260905083603 | 71 | 110 | 0.0 | 39.0 | 0.00 | 0.00 | 0.00 | 98 | 1022.1 |
| 20260905082703 | 71 | 90 | 0.0 | 90.0 | 0.00 | 0.00 | 0.00 | 98 | 1022.1 |
| 20260905081805 | 70 | 0 | 0.0 | 0.0 | 0.00 | 0.00 | 0.00 | 98 | 1022.1 |
| 20260905080905 | 70 | 0 | 0.0 | 0.0 | 0.00 | 0.00 | 0.00 | 98 | 1022.1 |
| 20260905080003 | 69 | 0 | 0.0 | 0.0 | 0.00 | 0.00 | 0.00 | 98 | 1022.1 |
| 20260905075405 | 68 | 0 | 0.0 | 0.0 | 0.00 | 0.00 | 0.00 | 98 | 1022.1 |
| 20260905074714 | 68 | 0 | 0.0 | 0.0 | 0.00 | 0.00 | 0.00 | 98 | 1022.1 |
| 20260905073813 | 68 | 0 | 0.0 | 0.0 | 0.00 | 0.00 | 0.00 | 98 | 1022.1 |
| 20260905072708 | 67 | 0 | 0.0 | 0.0 | 0.00 | 0.00 | 0.00 | 98 | 1022.1 |
| 20260905071805 | 67 | 0 | 0.0 | 0.0 | 0.00 | 0.00 | 0.00 | 98 | 1022.1 |
| 20260905070903 | 66 | 0 | 0.0 | 0.0 | 0.00 | 0.00 | 0.00 | 98 | 1022.1 |
| 20260905070004 | 66 | 0 | 0.0 | 0.0 | 0.00 | 0.00 | 0.00 | 98 | 1022.1 |
| 20260905065405 | 65 | 0 | 0.0 | 0.0 | 0.00 | 0.00 | 0.00 | 98 | 1022.1 |
| 20260905064505 | 64 | 0 | 0.0 | 0.0 | 0.00 | 0.00 | 0.00 | 98 | 1022.1 |
| 20260905063603 | 63 | 0 | 0.0 | 0.0 | 0.00 | 0.00 | 0.00 | 98 | 1022.1 |
| 20260905062703 | 63 | 0 | 0.0 | 0.0 | 0.00 | 0.00 | 0.00 | 98 | 1022.1 |
| 20260905061803 | 62 | 0 | 0.0 | 0.0 | 0.00 | 0.00 | 0.00 | 98 | 1022.1 |
| 20260905060903 | 62 | 0 | 0.0 | 0.0 | 0.00 | 0.00 | 0.00 | 98 | 1022.1 |
| 20260905060005 | 61 | 0 | 0.0 | 0.0 | 0.00 | 0.00 | 0.00 | 98 | 1022.1 |
| 20260905055613 | 61 | 0 | 0.0 | 0.0 | 0.00 | 0.00 | 0.00 | 98 | 1022.1 |
| 20260905054503 | 61 | 0 | 0.0 | 0.0 | 0.00 | 0.00 | 0.00 | 98 | 1022.1 |
| 20260905053603 | 61 | 0 | 0.0 | 0.0 | 0.00 | 0.00 | 0.00 | 98 | 1022.1 |
| 20260905052703 | 61 | 0 | 0.0 | 0.0 | 0.00 | 0.00 | 0.00 | 98 | 1022.1 |
| 20260905052015 | 61 | 0 | 0.0 | 0.0 | 0.00 | 0.00 | 0.00 | 98 | 1022.1 |
| 20260905050903 | 61 | 0 | 0.0 | 0.0 | 0.00 | 0.00 | 0.00 | 98 | 1021.1 |
| 20260905050215 | 61 | 0 | 0.0 | 0.0 | 0.00 | 0.00 | 0.00 | 98 | 1021.1 |
| 20260905045405 | 61 | 0 | 0.0 | 0.0 | 0.00 | 0.00 | 0.00 | 98 | 1021.1 |
| 20260905044503 | 61 | 0 | 0.0 | 0.0 | 0.00 | 0.00 | 0.00 | 98 | 1021.1 |
| 20260905043603 | 61 | 0 | 0.0 | 0.0 | 0.00 | 0.00 | 0.00 | 98 | 1021.1 |
| 20260905042913 | 61 | 0 | 0.0 | 0.0 | 0.00 | 0.00 | 0.00 | 98 | 1021.1 |
| 20260905041803 | 61 | 0 | 0.0 | 0.0 | 0.00 | 0.00 | 0.00 | 98 | 1021.1 |
| 20260905040903 | 61 | 0 | 0.0 | 0.0 | 0.00 | 0.00 | 0.00 | 98 | 1021.1 |
| 20260905040003 | 61 | 0 | 0.0 | 0.0 | 0.00 | 0.00 | 0.00 | 98 | 1021.1 |
| 20260905035613 | 61 | 0 | 0.0 | 0.0 | 0.00 | 0.00 | 0.00 | 98 | 1021.1 |
| 20260905034503 | 61 | 0 | 0.0 | 0.0 | 0.00 | 0.00 | 0.00 | 98 | 1021.1 |
| 20260905033815 | 61 | 0 | 0.0 | 0.0 | 0.00 | 0.00 | 0.00 | 98 | 1021.1 |
| 20260905032703 | 62 | 0 | 0.0 | 0.0 | 0.00 | 0.00 | 0.00 | 98 | 1021.1 |
| 20260905031803 | 62 | 0 | 0.0 | 0.0 | 0.00 | 0.00 | 0.00 | 98 | 1021.1 |
| 20260905030903 | 62 | 0 | 0.0 | 0.0 | 0.00 | 0.00 | 0.00 | 98 | 1021.1 |
| 20260905030213 | 62 | 0 | 0.0 | 0.0 | 0.00 | 0.00 | 0.00 | 98 | 1021.1 |
| 20260905025405 | 62 | 0 | 0.0 | 0.0 | 0.00 | 0.00 | 0.00 | 98 | 1021.1 |
| 20260905024503 | 62 | 0 | 0.0 | 0.0 | 0.00 | 0.00 | 0.00 | 98 | 1021.1 |
| 20260905023815 | 62 | 0 | 0.0 | 0.0 | 0.00 | 0.00 | 0.00 | 98 | 1021.1 |
| 20260905022706 | 62 | 0 | 0.0 | 0.0 | 0.00 | 0.00 | 0.00 | 98 | 1021.1 |
| 20260905021803 | 62 | 0 | 0.0 | 0.0 | 0.00 | 0.00 | 0.00 | 98 | 1021.1 |
| 20260905021113 | 62 | 0 | 0.0 | 0.0 | 0.00 | 0.00 | 0.00 | 98 | 1021.1 |
| 20260905020003 | 62 | 0 | 0.0 | 0.0 | 0.00 | 0.00 | 0.00 | 98 | 1021.1 |
| 20260905015405 | 62 | 0 | 0.0 | 0.0 | 0.00 | 0.00 | 0.00 | 98 | 1021.1 |
| 20260905014504 | 62 | 0 | 0.0 | 0.0 | 0.00 | 0.00 | 0.00 | 98 | 1021.1 |
| 20260905013605 | 62 | 0 | 0.0 | 0.0 | 0.00 | 0.00 | 0.00 | 98 | 1021.1 |
| 20260905012704 | 62 | 0 | 0.0 | 0.0 | 0.00 | 0.00 | 0.00 | 98 | 1021.1 |
| 20260905011803 | 63 | 0 | 0.0 | 0.0 | 0.00 | 0.00 | 0.00 | 98 | 1021.1 |
| 20260905010903 | 63 | 0 | 0.0 | 0.0 | 0.00 | 0.00 | 0.00 | 98 | 1021.1 |
| 20260905010214 | 63 | 0 | 0.0 | 0.0 | 0.00 | 0.00 | 0.00 | 98 | 1021.1 |
| 20260905005613 | 63 | 0 | 0.0 | 0.0 | 0.00 | 0.00 | 0.00 | 98 | 1021.1 |
| 20260905004503 | 63 | 0 | 0.0 | 0.0 | 0.00 | 0.00 | 0.00 | 98 | 1021.1 |
| 20260905003603 | 64 | 0 | 0.0 | 0.0 | 0.00 | 0.00 | 0.00 | 98 | 1021.1 |
| 20260905002703 | 64 | 0 | 0.0 | 0.0 | 0.00 | 0.00 | 0.00 | 98 | 1021.1 |
| 20260905001805 | 64 | 0 | 0.0 | 0.0 | 0.00 | 0.00 | 0.00 | 98 | 1021.1 |
| 20260905001112 | 64 | 0 | 0.0 | 0.0 | 0.00 | 0.00 | 0.00 | 98 | 1021.1 |
| 20260905000003 | 64 | 0 | 0.0 | 0.0 | 0.00 | 0.00 | 0.00 | 98 | 1021.1 |
| 20260904235405 | 64 | 0 | 0.0 | 0.0 | 0.00 | 0.00 | 0.00 | 98 | 1021.1 |
| 20260904234505 | 65 | 0 | 0.0 | 0.0 | 0.00 | 0.00 | 0.00 | 98 | 1021.1 |
| 20260904233603 | 65 | 0 | 0.0 | 0.0 | 0.00 | 0.00 | 0.00 | 98 | 1021.1 |
| 20260904232703 | 65 | 0 | 0.0 | 0.0 | 0.00 | 0.00 | 0.00 | 98 | 1021.1 |
| 20260904231803 | 65 | 0 | 0.0 | 0.0 | 0.00 | 0.00 | 0.00 | 98 | 1021.1 |
| 20260904230903 | 65 | 0 | 0.0 | 0.0 | 0.00 | 0.00 | 0.00 | 98 | 1021.1 |
| 20260904230003 | 65 | 0 | 0.0 | 0.0 | 0.00 | 0.00 | 0.00 | 98 | 1021.1 |
| 20260904225403 | 65 | 0 | 0.0 | 0.0 | 0.00 | 0.00 | 0.00 | 98 | 1021.1 |
| 20260904224712 | 66 | 0 | 0.0 | 0.0 | 0.00 | 0.00 | 0.00 | 98 | 1021.1 |
| 20260904223603 | 66 | 0 | 0.0 | 0.0 | 0.00 | 0.00 | 0.00 | 98 | 1021.1 |
| 20260904222703 | 66 | 0 | 0.0 | 0.0 | 0.00 | 0.00 | 0.00 | 98 | 1021.1 |
| 20260904221805 | 67 | 0 | 0.0 | 0.0 | 0.00 | 0.00 | 0.00 | 97 | 1021.1 |
| 20260904220905 | 67 | 0 | 0.0 | 0.0 | 0.00 | 0.00 | 0.00 | 97 | 1021.1 |
| 20260904220004 | 67 | 0 | 0.0 | 0.0 | 0.00 | 0.00 | 0.00 | 97 | 1021.1 |
| 20260904215403 | 68 | 0 | 0.0 | 0.0 | 0.00 | 0.00 | 0.00 | 97 | 1021.1 |
| 20260904214505 | 68 | 0 | 0.0 | 0.0 | 0.00 | 0.00 | 0.00 | 97 | 1021.1 |
| 20260904213603 | 69 | 0 | 0.0 | 0.0 | 0.00 | 0.00 | 0.00 | 97 | 1021.1 |
| 20260904212704 | 69 | 0 | 0.0 | 0.0 | 0.00 | 0.00 | 0.00 | 97 | 1021.1 |
| 20260904212014 | 69 | 0 | 0.0 | 0.0 | 0.00 | 0.00 | 0.00 | 97 | 1021.1 |
| 20260904210903 | 70 | 0 | 0.0 | 0.0 | 0.00 | 0.00 | 0.00 | 97 | 1021.1 |
| 20260904210214 | 70 | 0 | 0.0 | 0.0 | 0.00 | 0.00 | 0.00 | 98 | 1021.1 |
| 20260904205405 | 70 | 288 | 0.0 | 77.0 | 0.00 | 0.00 | 0.00 | 98 | 1021.1 |